When you browse on this site, cookies collect data to enhance your experience and personalize the content and advertising you see.
Visit our Privacy Policy to learn more. By continuing to use the site, you agree to this use of cookies and data.
  • In Spain
  • List of Countries
  • For 7 days
  • Water Temperature
  • Satellite Maps
  • Weather Map
  • Weather Widgets
  • user-avatar
    Login

    Hourly Weather Bangalol

    Today, 21 July, Sunday

    Time Temperature Precipitation Wind Pressure Humidity
    00:00 +23°C° 0 mm 4 mps 695 mmHg 84%
    01:00 +23°C° 0 mm 4 mps 694 mmHg 84%
    02:00 +23°C° 0 mm 4 mps 694 mmHg 83%
    03:00 +23°C° 0 mm 4 mps 694 mmHg 83%
    04:00 +23°C° 0 mm 4 mps 693 mmHg 83%
    05:00 +23°C° 0 mm 4 mps 693 mmHg 84%
    06:00 +25°C° 0 mm 5 mps 694 mmHg 81%
    07:00 +25°C° 0 mm 5 mps 694 mmHg 79%
    08:00 +26°C° 0 mm 6 mps 695 mmHg 77%
    09:00 +27°C° 0 mm 6 mps 695 mmHg 73%
    10:00 +28°C° 0 mm 7 mps 695 mmHg 69%
    11:00 +29°C° 0 mm 7 mps 696 mmHg 65%
    12:00 +30°C° 0.4 mm 7 mps 695 mmHg 63%
    13:00 +30°C° 0.4 mm 7 mps 694 mmHg 61%
    14:00 +31°C° 0.4 mm 8 mps 694 mmHg 59%
    15:00 +30°C° 0.1 mm 7 mps 694 mmHg 62%
    16:00 +29°C° 0.1 mm 7 mps 693 mmHg 65%
    17:00 +28°C° 0.1 mm 6 mps 693 mmHg 69%
    18:00 +27°C° 0 mm 6 mps 693 mmHg 72%
    19:00 +27°C° 0 mm 5 mps 694 mmHg 75%
    20:00 +26°C° 0 mm 4 mps 694 mmHg 78%
    21:00 +26°C° 0 mm 4 mps 694 mmHg 80%
    22:00 +25°C° 0 mm 4 mps 695 mmHg 81%
    23:00 +25°C° 0 mm 4 mps 695 mmHg 83%

    Tomorrow, 22 July, Monday

    Time Temperature Precipitation Wind Pressure Humidity
    00:00 +25°C° 0 mm 3 mps 694 mmHg 84%
    01:00 +25°C° 0 mm 3 mps 694 mmHg 84%
    02:00 +25°C° 0 mm 2 mps 693 mmHg 85%
    03:00 +25°C° 0.2 mm 3 mps 693 mmHg 85%
    04:00 +25°C° 0.2 mm 3 mps 693 mmHg 86%
    05:00 +23°C° 0.2 mm 4 mps 693 mmHg 86%
    06:00 +25°C° 0.2 mm 4 mps 693 mmHg 84%
    07:00 +25°C° 0.2 mm 4 mps 694 mmHg 81%
    08:00 +26°C° 0.2 mm 4 mps 694 mmHg 79%
    09:00 +27°C° 0.1 mm 4 mps 694 mmHg 76%
    10:00 +27°C° 0.1 mm 4 mps 694 mmHg 74%
    11:00 +28°C° 0.1 mm 5 mps 694 mmHg 71%
    12:00 +28°C° 1 mm 4 mps 694 mmHg 72%
    13:00 +27°C° 1 mm 3 mps 693 mmHg 73%
    14:00 +27°C° 1 mm 2 mps 693 mmHg 74%
    15:00 +27°C° 1.5 mm 2 mps 692 mmHg 77%
    16:00 +26°C° 1.5 mm 2 mps 692 mmHg 79%
    17:00 +26°C° 1.5 mm 2 mps 692 mmHg 82%
    18:00 +25°C° 3.9 mm 3 mps 692 mmHg 85%
    19:00 +25°C° 3.9 mm 3 mps 693 mmHg 89%
    20:00 +24°C° 3.9 mm 3 mps 693 mmHg 92%
    21:00 +24°C° 2.3 mm 3 mps 693 mmHg 93%
    22:00 +24°C° 2.3 mm 3 mps 693 mmHg 93%
    23:00 +24°C° 2.3 mm 3 mps 693 mmHg 94%

    Day after tomorrow, 23 July, Tuesday

    Time Temperature Precipitation Wind Pressure Humidity
    00:00 +22°C° 3.1 mm 3 mps 693 mmHg 95%
    01:00 +22°C° 3.1 mm 3 mps 692 mmHg 95%
    02:00 +23°C° 3.1 mm 2 mps 692 mmHg 96%
    03:00 +22°C° 4.1 mm 3 mps 692 mmHg 96%
    04:00 +22°C° 4.1 mm 4 mps 691 mmHg 96%
    05:00 +22°C° 4.1 mm 5 mps 691 mmHg 96%
    06:00 +22°C° 1.5 mm 4 mps 692 mmHg 95%
    07:00 +22°C° 1.5 mm 4 mps 692 mmHg 95%
    08:00 +22°C° 1.5 mm 3 mps 693 mmHg 94%
    09:00 +22°C° 0.1 mm 4 mps 693 mmHg 91%
    10:00 +23°C° 0.1 mm 4 mps 693 mmHg 87%
    11:00 +25°C° 0.1 mm 4 mps 693 mmHg 83%
    12:00 +25°C° 0 mm 5 mps 692 mmHg 84%
    13:00 +25°C° 0 mm 5 mps 692 mmHg 84%
    14:00 +25°C° 0 mm 5 mps 691 mmHg 84%
    15:00 +25°C° 0 mm 5 mps 691 mmHg 85%
    16:00 +23°C° 0 mm 4 mps 691 mmHg 87%
    17:00 +24°C° 0 mm 3 mps 691 mmHg 88%
    18:00 +24°C° 0.1 mm 3 mps 692 mmHg 89%
    19:00 +24°C° 0.1 mm 2 mps 692 mmHg 89%
    20:00 +24°C° 0.1 mm 2 mps 693 mmHg 90%
    21:00 +24°C° 0.2 mm 2 mps 693 mmHg 90%
    22:00 +24°C° 0.2 mm 3 mps 693 mmHg 90%
    23:00 +22°C° 0.2 mm 3 mps 693 mmHg 90%

    24 July, Wednesday

    Time Temperature Precipitation Wind Pressure Humidity
    00:00 +22°C° 0.4 mm 4 mps 693 mmHg 91%
    01:00 +22°C° 0.4 mm 4 mps 692 mmHg 92%
    02:00 +22°C° 0.4 mm 5 mps 692 mmHg 92%
    03:00 +22°C° 0.3 mm 5 mps 692 mmHg 92%
    04:00 +22°C° 0.3 mm 5 mps 692 mmHg 91%
    05:00 +22°C° 0.3 mm 6 mps 692 mmHg 91%
    06:00 +22°C° 0.1 mm 5 mps 692 mmHg 90%
    07:00 +22°C° 0.1 mm 5 mps 693 mmHg 90%
    08:00 +22°C° 0.1 mm 4 mps 693 mmHg 89%
    09:00 +23°C° 0 mm 5 mps 693 mmHg 85%
    10:00 +24°C° 0 mm 6 mps 693 mmHg 80%
    11:00 +26°C° 0 mm 6 mps 694 mmHg 76%
    12:00 +27°C° 0.1 mm 6 mps 693 mmHg 73%
    13:00 +28°C° 0.1 mm 6 mps 693 mmHg 70%
    14:00 +29°C° 0.1 mm 6 mps 693 mmHg 67%
    15:00 +28°C° 0.2 mm 6 mps 693 mmHg 68%
    16:00 +28°C° 0.2 mm 6 mps 693 mmHg 70%
    17:00 +27°C° 0.2 mm 6 mps 693 mmHg 72%
    18:00 +26°C° 0 mm 6 mps 693 mmHg 75%
    19:00 +24°C° 0 mm 6 mps 694 mmHg 79%
    20:00 +25°C° 0 mm 5 mps 694 mmHg 82%
    21:00 +23°C° 0 mm 5 mps 694 mmHg 84%
    22:00 +23°C° 0 mm 5 mps 695 mmHg 85%
    23:00 +23°C° 0 mm 5 mps 695 mmHg 87%

    25 July, Thursday

    Time Temperature Precipitation Wind Pressure Humidity
    00:00 +22°C° 0 mm 5 mps 694 mmHg 87%
    01:00 +22°C° 0 mm 4 mps 694 mmHg 88%
    02:00 +22°C° 0 mm 4 mps 694 mmHg 88%
    03:00 +22°C° 0 mm 4 mps 694 mmHg 88%
    04:00 +22°C° 0 mm 4 mps 694 mmHg 88%
    05:00 +22°C° 0 mm 4 mps 694 mmHg 89%
    06:00 +23°C° 0 mm 5 mps 694 mmHg 85%
    07:00 +23°C° 0 mm 6 mps 695 mmHg 81%
    08:00 +24°C° 0 mm 6 mps 696 mmHg 77%
    09:00 +26°C° 0 mm 7 mps 696 mmHg 72%
    10:00 +28°C° 0 mm 7 mps 696 mmHg 68%
    11:00 +29°C° 0 mm 7 mps 696 mmHg 64%
    12:00 +29°C° 0 mm 7 mps 695 mmHg 62%
    13:00 +30°C° 0 mm 7 mps 695 mmHg 59%
    14:00 +32°C° 0 mm 8 mps 695 mmHg 57%
    15:00 +30°C° 0.2 mm 7 mps 695 mmHg 59%
    16:00 +29°C° 0.2 mm 7 mps 694 mmHg 61%
    17:00 +29°C° 0.2 mm 7 mps 694 mmHg 64%
    18:00 +28°C° 0 mm 6 mps 695 mmHg 68%
    19:00 +27°C° 0 mm 5 mps 695 mmHg 73%
    20:00 +26°C° 0 mm 4 mps 696 mmHg 77%
    21:00 +25°C° 0 mm 4 mps 696 mmHg 79%
    22:00 +25°C° 0 mm 4 mps 696 mmHg 81%
    23:00 +23°C° 0 mm 4 mps 696 mmHg 82%

    26 July, Friday

    Time Temperature Precipitation Wind Pressure Humidity
    00:00 +23°C° 0 mm 4 mps 695 mmHg 84%
    01:00 +23°C° 0 mm 4 mps 695 mmHg 85%
    02:00 +23°C° 0 mm 4 mps 694 mmHg 86%
    03:00 +23°C° 0 mm 4 mps 694 mmHg 86%
    04:00 +22°C° 0 mm 4 mps 695 mmHg 86%
    05:00 +22°C° 0 mm 3 mps 695 mmHg 87%
    06:00 +23°C° 0 mm 4 mps 695 mmHg 83%
    07:00 +25°C° 0 mm 4 mps 696 mmHg 80%
    08:00 +26°C° 0 mm 5 mps 696 mmHg 76%
    09:00 +27°C° 0 mm 5 mps 696 mmHg 71%
    10:00 +28°C° 0 mm 6 mps 697 mmHg 65%
    11:00 +30°C° 0 mm 6 mps 697 mmHg 60%
    12:00 +30°C° 0.3 mm 6 mps 696 mmHg 59%
    13:00 +30°C° 0.3 mm 6 mps 696 mmHg 58%
    14:00 +32°C° 0.3 mm 7 mps 695 mmHg 56%
    15:00 +30°C° 1 mm 6 mps 695 mmHg 60%
    16:00 +29°C° 1 mm 6 mps 695 mmHg 63%
    17:00 +28°C° 1 mm 6 mps 695 mmHg 66%
    18:00 +27°C° 0.3 mm 6 mps 696 mmHg 70%
    19:00 +26°C° 0.3 mm 5 mps 696 mmHg 75%
    20:00 +25°C° 0.3 mm 5 mps 697 mmHg 80%
    21:00 +25°C° 0 mm 4 mps 697 mmHg 81%
    22:00 +23°C° 0 mm 4 mps 697 mmHg 82%
    23:00 +23°C° 0 mm 4 mps 697 mmHg 84%
    Show more